User: anonymous   Login
Location: Cutler
(25.6150°N, 80.3110°W)
Time: 21:29:42
(UTC-04:00)
Language:

Cosmos 2360 Rocket - Orbit

View from above orbital plane
View from above orbital plane
View from above satellite
View from above satellite

Ground track
Ground track

The orbit data is extracted from the following two-line orbital elements,

1 25407U 98045B   15212.16970420 -.00000211  00000-0 -83395-4 0  9992
2 25407 071.0097 045.1283 0007926 189.8584 170.2385 14.15718753878948
Epoch (UTC): 31 July 2015 04:04:22
Eccentricity: 0.0007926
inclination: 71.0097°
perigee height: 834 km
apogee height: 845 km
right ascension of ascending node: 45.1283°
argument of perigee: 189.8584°
revolutions per day: 14.15718753
mean anomaly at epoch: 170.2385°
orbit number at epoch: 87894

The dashed part of the orbit path shows where the satellite is in the earth's shadow,  

DLR